Regional Weather Roundup
Issued by NWS

Home | Current Version | Previous Version | Graphics & Text | Print | Product List | Glossary On
Versions: 1 2 3 4 5 6 7 8 9 10 11 12 13 14 15 16 17 18 19 20 21 22 23 24 25 26 27 28 29 30 31 32 33 34 35 36 37 38 39 40 41 42 43 44 45 46 47 48 49 50
000
ASUS43 KIND 121009
RWRIN

WEATHER ROUNDUP FOR INDIANA
NATIONAL WEATHER SERVICE INDIANAPOLIS IN
500 AM EST FRI FEB 12 2016

NOTE: "FAIR" INDICATES FEW OR NO CLOUDS BELOW 12,000 FEET WITH NO
SIGNIFICANT WEATHER AND/OR OBSTRUCTIONS TO VISIBILITY.

* - STATION DOES NOT REPORT WEATHER SUCH AS PRECIPITATION OR FOG.

+ - STATION NOT QUALITY CONTROLLED BY THE NATIONAL WEATHER SERVICE.
    USE DATA WITH CAUTION...ESPECIALLY DEWPOINT AND RELATIVE
    HUMIDITY OBSERVATIONS.

INZ001>003-010>013-019-020-121100-
NORTHWEST INDIANA

CITY           SKY/WX    TMP DP  RH WIND       PRES   REMARKS
KNOX *+        CLOUDY    18  12  79 SW3       30.17F
LA PORTE +     CLOUDY    18  11  76 SW6       30.16F WCI  10
MICHIGAN CITY+ CLOUDY    18   9  68 SW6       30.17S WCI   9
MONTICELLO +   CLOUDY    18  11  73 S5        30.18F WCI  11
RENSSELAER +   MOCLDY    21  10  63 SW6       30.19S WCI  14
VALPARAISO     CLOUDY    18  11  74 SW8       30.17F WCI   8

$$

LMZ046-743>745-121100-
SOUTHERN LAKE MICHIGAN

STATION/POSITION TIME  TEMP    WIND        PRES    WAVE
                       AIR SEA DIR/SP/G            HT
                 (UTC) (F)     (DEG/KT/KT) (MB)    (FT)
BURNS HARBOR     0900   20     220/  7/ 11 1022.4F
MICHIGAN CITY    0900   19     190/ 11/ 13   N/A

$$

INZ004-005-014>016-021>024-121100-
NORTH CENTRAL INDIANA

CITY           SKY/WX    TMP DP  RH WIND       PRES   REMARKS
GOSHEN         CLOUDY    16   8  71 SW7       30.15F WCI   6
LOGANSPORT +   CLOUDY    19  10  68 SW6       30.19F WCI  11
PERU/GRISSOM   CLOUDY    17  11  77 SW6       30.16F WCI   9
ROCHESTER +    CLOUDY    18   9  68 CALM      30.17F
SOUTH BEND     CLOUDY    14   6  70 SW10      30.15F WCI   1
WARSAW +       CLOUDY    18  10  73 SW6       30.15F WCI   9

$$

INZ006>009-017-018-025>027-121100-
NORTHEAST INDIANA

CITY           SKY/WX    TMP DP  RH WIND       PRES   REMARKS
ANGOLA *+      CLOUDY     9   3  78 CALM      30.12F
AUBURN +       CLOUDY    16   9  73 S5        30.15F WCI   9
FORT WAYNE     CLOUDY    15   8  73 SW8       30.17F WCI   4
HUNTINGTON +   CLOUDY    13   6  75 CALM      30.17S

$$

INZ028-029-035-036-043>045-051>053-121100-
WEST CENTRAL INDIANA

CITY           SKY/WX    TMP DP  RH WIND       PRES   REMARKS
GREENCASTLE +  MOCLDY    19  12  73 CALM      30.19S
LAFAYETTE      CLOUDY    18  13  80 CALM      30.20F
TERRE HAUTE    CLOUDY    21  13  71 CALM      30.21S

$$

INZ030>032-037>040-046>048-054>057-064-065-121100-
CENTRAL INDIANA

CITY           SKY/WX    TMP DP  RH WIND       PRES   REMARKS
FISHERS *+     CLOUDY    18  14  86 CALM      30.19S
FRANKFORT +    CLOUDY    18   9  69 CALM      30.20S
GREENWOOD *+   CLOUDY    21  14  73 CALM      30.19F
INDIANAPOLIS   MOCLDY    21   9  59 CALM      30.18S
-EAGLE CREEK   CLOUDY    21  11  65 CALM      30.18F
KOKOMO *+      CLOUDY    16  10  79 CALM      30.18S
MARION +       CLOUDY    15   5  64 S5        30.18S WCI   8
MT COMFORT *+  CLOUDY    19  10  68 CALM      30.19S
SHELBYVILLE    CLOUDY    19  10  68 CALM      30.19S
ZIONSVILLE +   CLOUDY    15  13  89 CALM      30.19S

$$

INZ033-034-041-042-049-050-058-059-121100-
EAST CENTRAL INDIANA

CITY           SKY/WX    TMP DP  RH WIND       PRES   REMARKS
MUNCIE         CLOUDY    17   9  70 SW5       30.17F WCI  10

$$

INZ060-061-067>069-081>083-085>088-121100-
SOUTHWEST INDIANA

CITY           SKY/WX    TMP DP  RH WIND       PRES   REMARKS
EVANSVILLE     CLOUDY    29  13  51 CALM      30.22F
HUNTINGBURG *+ CLOUDY    27  16  63 NW3       30.22R
WASHINGTON +   CLOUDY    25  13  62 CALM      30.21S

$$

INZ062-063-066-070>080-084-089>092-121100-
SOUTH CENTRAL AND SOUTHEAST INDIANA

CITY           SKY/WX    TMP DP  RH WIND       PRES   REMARKS
BEDFORD +      CLOUDY    23  14  68 E3        30.19F
BLOOMINGTON    CLOUDY    21  11  65 SE3       30.17F
MADISON *+     CLOUDY    23  10  58 CALM      30.20S
NORTH VERNON + CLOUDY    21   9  58 CALM      30.20F
SEYMOUR +      CLOUDY    23  10  58 CALM      30.21R

$$




USA.gov is the U.S. government's official web portal to all federal, state and local government web resources and services.